AAL2508 KORD-KMIA

Flight info

Callsign AAL2508
Flight time 2h 29m
Altitude 37000
Route DENNT DARCY DREGS DONVE BWG BBABE SARGE HONID FROGZ5
Aircraft A320/M-SDE3FGHIRWY/LB1

Departure

Time 2026-05-04 04:23
Airport Chicago O'Hare International Airport (KORD)

Arrival

Time 2026-05-04 06:53
Airport Miami International Airport (KMIA)
Time Latitude Longitude Altitude Speed Heading
2026-05-04 03:17 41.97372 -87.90101 671 ft 0 kts 89°
2026-05-04 03:52 41.97372 -87.90102 670 ft 1 kts 89°
2026-05-04 03:52 41.97368 -87.90121 670 ft 3 kts 73°
2026-05-04 03:52 41.97360 -87.90148 668 ft 4 kts 37°
2026-05-04 03:52 41.97336 -87.90160 669 ft 4 kts
2026-05-04 03:53 41.97328 -87.90160 669 ft 0 kts 360°
2026-05-04 03:56 41.97329 -87.90160 670 ft 0 kts 359°
2026-05-04 03:56 41.97329 -87.90161 670 ft 0 kts 355°
2026-05-04 03:56 41.97330 -87.90162 670 ft 0 kts 343°
2026-05-04 03:56 41.97330 -87.90166 670 ft 0 kts 315°
2026-05-04 03:57 41.97329 -87.90170 670 ft 0 kts 275°
2026-05-04 03:57 41.97324 -87.90173 680 ft 1 kts 221°
2026-05-04 03:57 41.97318 -87.90168 680 ft 1 kts 155°
2026-05-04 03:57 41.97311 -87.90165 670 ft 0 kts 170°
2026-05-04 03:58 41.97310 -87.90165 670 ft 1 kts 171°
2026-05-04 03:59 41.97308 -87.90164 670 ft 0 kts 171°
2026-05-04 04:08 41.97306 -87.90164 670 ft 0 kts 171°
2026-05-04 04:08 41.97305 -87.90164 670 ft 0 kts 171°
2026-05-04 04:10 41.97302 -87.90163 670 ft 1 kts 171°
2026-05-04 04:10 41.97292 -87.90161 670 ft 1 kts 171°
2026-05-04 04:10 41.97286 -87.90160 670 ft 0 kts 171°
2026-05-04 04:15 41.97284 -87.90159 670 ft 0 kts 171°
2026-05-04 04:15 41.97280 -87.90160 670 ft 1 kts 179°
2026-05-04 04:16 41.97263 -87.90160 670 ft 5 kts 180°
2026-05-04 04:16 41.97219 -87.90145 670 ft 8 kts 142°
2026-05-04 04:16 41.97207 -87.90072 670 ft 9 kts 91°
2026-05-04 04:16 41.97207 -87.89979 670 ft 11 kts 90°
2026-05-04 04:17 41.97219 -87.89871 667 ft 13 kts 73°
2026-05-04 04:17 41.97262 -87.89758 670 ft 14 kts 57°
2026-05-04 04:17 41.97300 -87.89636 670 ft 4 kts 106°
2026-05-04 04:17 41.97299 -87.89630 670 ft 2 kts 106°
2026-05-04 04:18 41.97291 -87.89607 670 ft 4 kts 118°
2026-05-04 04:18 41.97269 -87.89581 670 ft 5 kts 154°
2026-05-04 04:18 41.97226 -87.89566 670 ft 8 kts 170°
2026-05-04 04:18 41.97213 -87.89559 670 ft 1 kts 150°
2026-05-04 04:19 41.97199 -87.89536 670 ft 4 kts 116°
2026-05-04 04:19 41.97196 -87.89491 670 ft 6 kts 95°
2026-05-04 04:19 41.97196 -87.89428 670 ft 8 kts 90°
2026-05-04 04:19 41.97196 -87.89346 670 ft 10 kts 90°
2026-05-04 04:20 41.97195 -87.89244 670 ft 12 kts 90°
2026-05-04 04:20 41.97196 -87.89123 670 ft 14 kts 90°
2026-05-04 04:20 41.97196 -87.88982 670 ft 16 kts 90°
2026-05-04 04:20 41.97195 -87.88822 670 ft 18 kts 90°
2026-05-04 04:21 41.97194 -87.88640 670 ft 21 kts 91°
2026-05-04 04:21 41.97200 -87.88438 670 ft 23 kts 89°
2026-05-04 04:21 41.97200 -87.88216 670 ft 25 kts 90°
2026-05-04 04:21 41.97199 -87.88109 670 ft 6 kts 92°
2026-05-04 04:22 41.97155 -87.88039 670 ft 13 kts 161°
2026-05-04 04:22 41.97056 -87.88030 670 ft 16 kts 179°
2026-05-04 04:22 41.96944 -87.88044 670 ft 17 kts 207°
2026-05-04 04:22 41.96841 -87.88155 666 ft 24 kts 221°
2026-05-04 04:23 41.96497 -87.88561 670 ft 109 kts 221°
2026-05-04 04:23 41.95750 -87.89438 762 ft 164 kts 221°
2026-05-04 04:23 41.94857 -87.90355 1688 ft 159 kts 204°
2026-05-04 04:23 41.93760 -87.90284 2639 ft 169 kts 165°
2026-05-04 04:24 41.92570 -87.89438 2908 ft 215 kts 160°
2026-05-04 04:24 41.91111 -87.88653 3613 ft 238 kts 165°
2026-05-04 04:24 41.89457 -87.87893 4358 ft 263 kts 166°
2026-05-04 04:24 41.87649 -87.87142 4853 ft 282 kts 168°
2026-05-04 04:25 41.87338 -87.87027 4885 ft 282 kts 169°
2026-05-04 04:25 41.85936 -87.86541 4976 ft 282 kts 170°
2026-05-04 04:26 41.85297 -87.86332 4991 ft 282 kts 171°
2026-05-04 04:26 41.83390 -87.85733 5013 ft 281 kts 171°
2026-05-04 04:26 41.81465 -87.85141 5496 ft 285 kts 171°
2026-05-04 04:26 41.79538 -87.84543 6479 ft 286 kts 171°
2026-05-04 04:27 41.77584 -87.83933 7362 ft 289 kts 171°
2026-05-04 04:27 41.75611 -87.83311 8194 ft 294 kts 170°
2026-05-04 04:27 41.73608 -87.82671 9027 ft 298 kts 170°
2026-05-04 04:27 41.71579 -87.82019 9822 ft 302 kts 170°
2026-05-04 04:28 41.69504 -87.81350 10310 ft 317 kts 170°
2026-05-04 04:28 41.67288 -87.80639 10571 ft 337 kts 169°
2026-05-04 04:28 41.64968 -87.79893 11127 ft 346 kts 169°
2026-05-04 04:28 41.62610 -87.79131 11799 ft 350 kts 170°
2026-05-04 04:29 41.60237 -87.78363 12484 ft 355 kts 170°
2026-05-04 04:29 41.57820 -87.77583 13190 ft 359 kts 170°
2026-05-04 04:29 41.55390 -87.76796 13843 ft 363 kts 170°
2026-05-04 04:29 41.52917 -87.75996 14447 ft 366 kts 170°
2026-05-04 04:30 41.51269 -87.75466 14856 ft 369 kts 171°
2026-05-04 04:30 41.48759 -87.74664 15454 ft 372 kts 171°
2026-05-04 04:30 41.46228 -87.73858 16048 ft 376 kts 171°
2026-05-04 04:30 41.43669 -87.73046 16634 ft 380 kts 171°
2026-05-04 04:31 41.41063 -87.72524 17225 ft 379 kts 182°
2026-05-04 04:31 41.38424 -87.72499 17814 ft 380 kts 185°
2026-05-04 04:31 41.35767 -87.72517 18388 ft 384 kts 185°
2026-05-04 04:31 41.33075 -87.72531 18923 ft 388 kts 185°
2026-05-04 04:32 41.30367 -87.72543 19433 ft 392 kts 185°
2026-05-04 04:32 41.27626 -87.72556 19970 ft 396 kts 185°
2026-05-04 04:32 41.24857 -87.72571 20502 ft 399 kts 185°
2026-05-04 04:32 41.22070 -87.72589 21023 ft 403 kts 185°
2026-05-04 04:33 41.19253 -87.72478 21527 ft 410 kts 179°
2026-05-04 04:33 41.16391 -87.72086 22033 ft 414 kts 178°
2026-05-04 04:33 41.13512 -87.71690 22548 ft 417 kts 178°
2026-05-04 04:33 41.10606 -87.71292 23048 ft 421 kts 179°
2026-05-04 04:34 41.07682 -87.70895 23537 ft 425 kts 179°
2026-05-04 04:34 41.04765 -87.70498 23966 ft 428 kts 179°
2026-05-04 04:34 41.01794 -87.70097 24396 ft 430 kts 179°
2026-05-04 04:34 40.98810 -87.69699 24815 ft 433 kts 179°
2026-05-04 04:35 40.95798 -87.69295 25231 ft 436 kts 179°
2026-05-04 04:35 40.92775 -87.68891 25645 ft 438 kts 178°
2026-05-04 04:35 40.89729 -87.68484 26059 ft 441 kts 178°
2026-05-04 04:35 40.86668 -87.68071 26417 ft 444 kts 179°
2026-05-04 04:36 40.83585 -87.67656 26787 ft 447 kts 179°
2026-05-04 04:36 40.80485 -87.67241 27166 ft 449 kts 179°
2026-05-04 04:36 40.77365 -87.66825 27541 ft 452 kts 179°
2026-05-04 04:36 40.74222 -87.66406 27914 ft 454 kts 179°
2026-05-04 04:37 40.64713 -87.65139 29012 ft 462 kts 179°
2026-05-04 04:37 40.61500 -87.64709 29373 ft 464 kts 178°
2026-05-04 04:38 40.58276 -87.64278 29725 ft 467 kts 178°
2026-05-04 04:38 40.55034 -87.63848 30062 ft 469 kts 178°
2026-05-04 04:38 40.51775 -87.63417 30360 ft 472 kts 179°
2026-05-04 04:38 40.48505 -87.62986 30650 ft 474 kts 179°
2026-05-04 04:39 40.45210 -87.62552 30944 ft 477 kts 179°
2026-05-04 04:39 40.41910 -87.62112 31287 ft 477 kts 179°
2026-05-04 04:39 40.38611 -87.61672 31693 ft 477 kts 179°
2026-05-04 04:39 40.35313 -87.61231 32101 ft 476 kts 179°
2026-05-04 04:40 40.32013 -87.60839 32507 ft 474 kts 183°
2026-05-04 04:40 40.28738 -87.60898 32912 ft 469 kts 188°
2026-05-04 04:40 40.25488 -87.61091 33320 ft 469 kts 188°
2026-05-04 04:40 40.22223 -87.61282 33707 ft 468 kts 188°
2026-05-04 04:41 40.19019 -87.61461 34147 ft 466 kts 188°
2026-05-04 04:41 40.15788 -87.61636 34539 ft 464 kts 188°
2026-05-04 04:41 40.12566 -87.61808 34910 ft 462 kts 188°
2026-05-04 04:41 40.09362 -87.61981 35263 ft 461 kts 188°
2026-05-04 04:42 40.06164 -87.62157 35604 ft 459 kts 188°
2026-05-04 04:42 40.02974 -87.62335 35946 ft 458 kts 188°
2026-05-04 04:42 39.99781 -87.62314 36238 ft 462 kts 181°
2026-05-04 04:42 39.96589 -87.61671 36585 ft 467 kts 171°
2026-05-04 04:43 39.93465 -87.60448 36852 ft 470 kts 167°
2026-05-04 04:43 39.90347 -87.59140 36914 ft 470 kts 167°
2026-05-04 04:43 39.84126 -87.56556 36913 ft 469 kts 167°
2026-05-04 04:44 39.77896 -87.53984 36888 ft 469 kts 167°
2026-05-04 04:44 39.71687 -87.51422 36908 ft 469 kts 168°
2026-05-04 04:45 39.65463 -87.48855 36915 ft 469 kts 168°
2026-05-04 04:47 39.43638 -87.39897 36941 ft 472 kts 169°
2026-05-04 04:47 39.37364 -87.37335 36949 ft 473 kts 169°
2026-05-04 04:48 39.31083 -87.34774 36941 ft 474 kts 169°
2026-05-04 04:49 39.15305 -87.28361 36965 ft 476 kts 169°
2026-05-04 04:49 39.08973 -87.25799 36956 ft 477 kts 169°
2026-05-04 04:50 39.02632 -87.23227 36956 ft 478 kts 169°
2026-05-04 04:50 38.96281 -87.20663 36968 ft 479 kts 169°
2026-05-04 04:51 38.89957 -87.18110 36966 ft 480 kts 169°
2026-05-04 04:51 38.83573 -87.15540 36932 ft 481 kts 169°
2026-05-04 04:52 38.77177 -87.12978 36933 ft 482 kts 169°
2026-05-04 04:52 38.70767 -87.10413 36940 ft 483 kts 169°
2026-05-04 04:53 38.64341 -87.07838 36979 ft 483 kts 169°
2026-05-04 04:53 38.57920 -87.05269 36950 ft 484 kts 169°
2026-05-04 04:54 38.51474 -87.02697 36967 ft 486 kts 169°
2026-05-04 04:54 38.45044 -87.00147 36974 ft 487 kts 170°
2026-05-04 04:55 38.38571 -86.97580 36984 ft 487 kts 169°
2026-05-04 04:55 38.32092 -86.95006 36983 ft 488 kts 169°
2026-05-04 04:56 38.25618 -86.92441 37014 ft 487 kts 170°
2026-05-04 04:56 38.19128 -86.89892 37010 ft 487 kts 170°
2026-05-04 04:57 38.12656 -86.87351 36969 ft 487 kts 170°
2026-05-04 04:57 38.06175 -86.84798 36978 ft 488 kts 170°
2026-05-04 04:58 37.99672 -86.82246 36992 ft 488 kts 170°
2026-05-04 04:58 37.93183 -86.79698 37005 ft 488 kts 170°
2026-05-04 04:59 37.86717 -86.77164 36984 ft 489 kts 170°
2026-05-04 04:59 37.80213 -86.74623 37001 ft 489 kts 170°
2026-05-04 05:00 37.73708 -86.72092 37020 ft 490 kts 170°
2026-05-04 05:01 37.63918 -86.68291 37009 ft 490 kts 170°
2026-05-04 05:01 37.57403 -86.65761 37033 ft 490 kts 170°
2026-05-04 05:02 37.50926 -86.63250 37045 ft 489 kts 171°
2026-05-04 05:02 37.44417 -86.60732 37057 ft 489 kts 171°
2026-05-04 05:03 37.37884 -86.58219 37037 ft 489 kts 171°
2026-05-04 05:04 37.24895 -86.53224 37069 ft 487 kts 170°
2026-05-04 05:04 37.18456 -86.50742 37074 ft 487 kts 170°
2026-05-04 05:06 36.92561 -86.40826 37032 ft 487 kts 170°
2026-05-04 05:07 36.86111 -86.38227 37059 ft 487 kts 169°
2026-05-04 05:07 36.79661 -86.35607 37073 ft 487 kts 169°
2026-05-04 05:09 36.50702 -86.24072 37100 ft 486 kts 169°
2026-05-04 05:10 36.44268 -86.21519 37113 ft 485 kts 169°
2026-05-04 05:10 36.37837 -86.18975 37112 ft 485 kts 169°
2026-05-04 05:11 36.31407 -86.16439 37121 ft 484 kts 169°
2026-05-04 05:11 36.24991 -86.13912 37126 ft 483 kts 169°
2026-05-04 05:12 36.18623 -86.11400 37115 ft 483 kts 169°
2026-05-04 05:12 36.12232 -86.08886 37124 ft 482 kts 169°
2026-05-04 05:13 36.05828 -86.06376 37123 ft 482 kts 169°
2026-05-04 05:13 35.99436 -86.03868 37128 ft 482 kts 169°
2026-05-04 05:14 35.93045 -86.01368 37138 ft 482 kts 169°
2026-05-04 05:14 35.86650 -85.98872 37137 ft 482 kts 169°
2026-05-04 05:15 35.80262 -85.96384 37123 ft 481 kts 169°
2026-05-04 05:15 35.73878 -85.93900 37120 ft 481 kts 169°
2026-05-04 05:16 35.67490 -85.91421 37074 ft 481 kts 169°
2026-05-04 05:16 35.61115 -85.88950 37106 ft 480 kts 169°
2026-05-04 05:17 35.54750 -85.86483 37121 ft 480 kts 169°
2026-05-04 05:17 35.48425 -85.84041 37133 ft 479 kts 169°
2026-05-04 05:18 35.42068 -85.81588 37106 ft 479 kts 169°
2026-05-04 05:18 35.35716 -85.79134 37131 ft 478 kts 169°
2026-05-04 05:19 35.30435 -85.77103 37134 ft 478 kts 169°
2026-05-04 05:19 35.24087 -85.74674 37141 ft 478 kts 169°
2026-05-04 05:20 35.17729 -85.72234 37138 ft 478 kts 169°
2026-05-04 05:20 35.11427 -85.69825 37126 ft 478 kts 169°
2026-05-04 05:21 35.05086 -85.67406 37130 ft 477 kts 169°
2026-05-04 05:21 34.98744 -85.64984 37137 ft 477 kts 169°
2026-05-04 05:22 34.92403 -85.62565 37138 ft 477 kts 169°
2026-05-04 05:22 34.86065 -85.60167 37118 ft 476 kts 168°
2026-05-04 05:23 34.79741 -85.57767 37136 ft 477 kts 168°
2026-05-04 05:23 34.73424 -85.55268 37136 ft 478 kts 167°
2026-05-04 05:24 34.67143 -85.52616 37144 ft 478 kts 166°
2026-05-04 05:24 34.60905 -85.49972 37128 ft 477 kts 166°
2026-05-04 05:25 34.54616 -85.47361 37129 ft 477 kts 167°
2026-05-04 05:25 34.48329 -85.44791 37135 ft 477 kts 167°
2026-05-04 05:26 34.42040 -85.42208 37144 ft 477 kts 167°
2026-05-04 05:26 34.35758 -85.39634 37125 ft 477 kts 166°
2026-05-04 05:28 34.10618 -85.29343 37134 ft 477 kts 167°
2026-05-04 05:29 34.04369 -85.26803 37143 ft 477 kts 166°
2026-05-04 05:29 33.98087 -85.24248 37161 ft 477 kts 166°
2026-05-04 05:31 33.72941 -85.14055 37200 ft 477 kts 166°
2026-05-04 05:32 33.66651 -85.11513 37209 ft 477 kts 166°
2026-05-04 05:33 33.57249 -85.07721 37193 ft 477 kts 166°
2026-05-04 05:33 33.50950 -85.05190 37191 ft 478 kts 166°
2026-05-04 05:34 33.44637 -85.02661 37198 ft 478 kts 166°
2026-05-04 05:34 33.38326 -85.00128 37181 ft 478 kts 166°
2026-05-04 05:35 33.32060 -84.97613 37182 ft 478 kts 166°
2026-05-04 05:35 33.25760 -84.95092 37181 ft 477 kts 166°
2026-05-04 05:36 33.19464 -84.92588 37180 ft 477 kts 166°
2026-05-04 05:36 33.13166 -84.90087 37177 ft 477 kts 166°
2026-05-04 05:37 33.06871 -84.87578 37174 ft 477 kts 166°
2026-05-04 05:37 33.00568 -84.85066 37164 ft 477 kts 166°
2026-05-04 05:38 32.91128 -84.81319 37178 ft 477 kts 166°
2026-05-04 05:38 32.84825 -84.78836 37183 ft 477 kts 166°
2026-05-04 05:39 32.75425 -84.75127 37162 ft 477 kts 166°
2026-05-04 05:40 32.65993 -84.71396 37171 ft 477 kts 166°
2026-05-04 05:40 32.59694 -84.68924 37169 ft 476 kts 166°
2026-05-04 05:41 32.53396 -84.66460 37185 ft 476 kts 166°
2026-05-04 05:41 32.47117 -84.63992 37163 ft 475 kts 166°
2026-05-04 05:42 32.40842 -84.61534 37172 ft 474 kts 166°
2026-05-04 05:42 32.34590 -84.59087 37171 ft 473 kts 166°
2026-05-04 05:43 32.28309 -84.56796 37170 ft 469 kts 172°
2026-05-04 05:45 32.02917 -84.49874 37173 ft 469 kts 172°
2026-05-04 05:47 31.77478 -84.42967 37166 ft 468 kts 173°
2026-05-04 05:47 31.71161 -84.41257 37173 ft 468 kts 173°
2026-05-04 05:48 31.64811 -84.39542 37151 ft 469 kts 173°
2026-05-04 05:48 31.58451 -84.37884 37164 ft 468 kts 174°
2026-05-04 05:49 31.52075 -84.36297 37183 ft 468 kts 174°
2026-05-04 05:49 31.45699 -84.34708 37194 ft 469 kts 174°
2026-05-04 05:51 31.20190 -84.28270 37196 ft 468 kts 175°
2026-05-04 05:52 31.13827 -84.26666 37196 ft 467 kts 175°
2026-05-04 05:52 31.07476 -84.25075 37170 ft 467 kts 175°
2026-05-04 05:54 30.82120 -84.18736 37139 ft 466 kts 176°
2026-05-04 05:55 30.75780 -84.17157 37150 ft 466 kts 176°
2026-05-04 05:55 30.69429 -84.15571 37161 ft 466 kts 176°
2026-05-04 05:56 30.63139 -84.14004 37143 ft 455 kts 176°
2026-05-04 05:56 30.56910 -84.12465 37161 ft 464 kts 176°
2026-05-04 05:57 30.50490 -84.10895 37155 ft 478 kts 176°
2026-05-04 05:57 30.43907 -84.09270 37153 ft 489 kts 175°
2026-05-04 05:58 30.37267 -84.07277 37149 ft 507 kts 164°
2026-05-04 05:58 30.34071 -84.05466 37156 ft 519 kts 155°
2026-05-04 05:58 30.30935 -84.03361 37154 ft 522 kts 156°
2026-05-04 05:59 30.24598 -83.99142 37117 ft 526 kts 156°
2026-05-04 05:59 30.18354 -83.94995 37147 ft 503 kts 156°
2026-05-04 06:00 30.15372 -83.93011 37146 ft 491 kts 157°
2026-05-04 06:00 30.12412 -83.91051 37147 ft 486 kts 157°
2026-05-04 06:00 30.06592 -83.87220 37153 ft 479 kts 158°
2026-05-04 06:01 30.00832 -83.83436 37153 ft 478 kts 157°
2026-05-04 06:03 29.77680 -83.68202 37154 ft 480 kts 158°
2026-05-04 06:05 29.51562 -83.51128 37149 ft 481 kts 159°
2026-05-04 06:06 29.45747 -83.47333 37159 ft 480 kts 159°
2026-05-04 06:06 29.39944 -83.43552 37156 ft 479 kts 159°
2026-05-04 06:07 29.34139 -83.39793 37131 ft 479 kts 160°
2026-05-04 06:07 29.28343 -83.36033 37136 ft 478 kts 160°
2026-05-04 06:08 29.22445 -83.32637 37135 ft 470 kts 166°
2026-05-04 06:08 29.16458 -83.29599 37127 ft 470 kts 166°
2026-05-04 06:09 29.11483 -83.27072 37135 ft 470 kts 166°
2026-05-04 06:11 28.87545 -83.14975 37143 ft 470 kts 167°
2026-05-04 06:13 28.63729 -83.02992 37127 ft 467 kts 167°
2026-05-04 06:14 28.42920 -82.92566 37088 ft 466 kts 168°
2026-05-04 06:15 28.36981 -82.89599 37109 ft 466 kts 168°
2026-05-04 06:15 28.31049 -82.86638 37114 ft 466 kts 168°
2026-05-04 06:16 28.25108 -82.83674 37127 ft 466 kts 168°
2026-05-04 06:16 28.19164 -82.80718 37126 ft 466 kts 168°
2026-05-04 06:17 28.13227 -82.77774 37104 ft 465 kts 169°
2026-05-04 06:17 28.07306 -82.74841 37126 ft 464 kts 169°
2026-05-04 06:18 28.01427 -82.72050 37128 ft 452 kts 175°
2026-05-04 06:18 27.98427 -82.71198 37128 ft 436 kts 183°
2026-05-04 06:20 27.77561 -82.67100 37091 ft 434 kts 184°
2026-05-04 06:21 27.62714 -82.64170 37106 ft 433 kts 184°
2026-05-04 06:22 27.56783 -82.63009 37107 ft 433 kts 184°
2026-05-04 06:25 27.15215 -82.51185 37096 ft 440 kts 179°
2026-05-04 06:26 27.09291 -82.49459 36989 ft 440 kts 179°
2026-05-04 06:26 27.06328 -82.48592 36734 ft 440 kts 179°
2026-05-04 06:26 27.03367 -82.47728 36476 ft 441 kts 178°
2026-05-04 06:26 27.00435 -82.46874 36233 ft 442 kts 178°
2026-05-04 06:27 26.88846 -82.41711 34534 ft 474 kts 151°
2026-05-04 06:28 26.86321 -82.39309 34022 ft 477 kts 148°
2026-05-04 06:28 26.83814 -82.36883 33477 ft 475 kts 149°
2026-05-04 06:28 26.81311 -82.34467 32979 ft 472 kts 149°
2026-05-04 06:28 26.78826 -82.32077 32482 ft 469 kts 149°
2026-05-04 06:29 26.76353 -82.29711 31990 ft 467 kts 149°
2026-05-04 06:29 26.73887 -82.27352 31520 ft 465 kts 149°
2026-05-04 06:29 26.71429 -82.25000 31033 ft 464 kts 149°
2026-05-04 06:29 26.68976 -82.22656 30580 ft 463 kts 149°
2026-05-04 06:30 26.66532 -82.20320 30121 ft 462 kts 149°
2026-05-04 06:30 26.64097 -82.17994 29601 ft 459 kts 148°
2026-05-04 06:30 26.61684 -82.15685 29210 ft 455 kts 148°
2026-05-04 06:30 26.59287 -82.13392 28783 ft 452 kts 148°
2026-05-04 06:31 26.56901 -82.11111 28376 ft 449 kts 148°
2026-05-04 06:31 26.54533 -82.08852 27969 ft 447 kts 148°
2026-05-04 06:31 26.52170 -82.06597 27577 ft 445 kts 147°
2026-05-04 06:31 26.49852 -82.04323 27185 ft 443 kts 146°
2026-05-04 06:32 26.47593 -82.02049 26794 ft 442 kts 145°
2026-05-04 06:33 26.31816 -81.86076 23861 ft 432 kts 145°
2026-05-04 06:34 26.29592 -81.83845 23457 ft 429 kts 145°
2026-05-04 06:34 26.27379 -81.81626 23092 ft 424 kts 145°
2026-05-04 06:34 26.25221 -81.79395 22684 ft 424 kts 140°
2026-05-04 06:34 26.23373 -81.76840 22057 ft 424 kts 128°
2026-05-04 06:35 26.21994 -81.73987 21623 ft 413 kts 120°
2026-05-04 06:36 26.14085 -81.55803 18913 ft 352 kts 122°
2026-05-04 06:37 26.13017 -81.53359 18543 ft 350 kts 122°
2026-05-04 06:37 26.11959 -81.50935 18267 ft 346 kts 122°
2026-05-04 06:37 26.10914 -81.48549 17762 ft 347 kts 122°
2026-05-04 06:37 26.09869 -81.46155 17384 ft 342 kts 122°
2026-05-04 06:38 26.08833 -81.43778 17025 ft 341 kts 122°
2026-05-04 06:38 26.07800 -81.41416 16665 ft 338 kts 122°
2026-05-04 06:40 26.00584 -81.24873 14125 ft 341 kts 121°
2026-05-04 06:40 25.99543 -81.22493 13742 ft 341 kts 121°
2026-05-04 06:40 25.98511 -81.20129 13333 ft 340 kts 121°
2026-05-04 06:40 25.97509 -81.17834 12975 ft 338 kts 121°
2026-05-04 06:41 25.96483 -81.15483 12607 ft 337 kts 120°
2026-05-04 06:41 25.95464 -81.13153 12239 ft 336 kts 120°
2026-05-04 06:41 25.94440 -81.10818 11863 ft 336 kts 120°
2026-05-04 06:41 25.93432 -81.08520 11492 ft 335 kts 120°
2026-05-04 06:42 25.92412 -81.06194 11116 ft 334 kts 119°
2026-05-04 06:42 25.91394 -81.03872 10738 ft 334 kts 119°
2026-05-04 06:42 25.90422 -81.01533 10358 ft 334 kts 116°
2026-05-04 06:44 25.84082 -80.84827 7095 ft 325 kts 115°
2026-05-04 06:44 25.83214 -80.82566 6631 ft 313 kts 115°
2026-05-04 06:44 25.82372 -80.80376 6146 ft 303 kts 115°
2026-05-04 06:45 25.81556 -80.78257 5653 ft 295 kts 114°
2026-05-04 06:45 25.80757 -80.76190 5166 ft 288 kts 114°
2026-05-04 06:45 25.79970 -80.74158 4688 ft 285 kts 114°
2026-05-04 06:45 25.79194 -80.72151 4187 ft 281 kts 114°
2026-05-04 06:46 25.78429 -80.70173 4009 ft 279 kts 114°
2026-05-04 06:46 25.77676 -80.68213 4004 ft 270 kts 112°
2026-05-04 06:46 25.77214 -80.66259 4003 ft 255 kts 97°
2026-05-04 06:46 25.77187 -80.64349 4006 ft 239 kts 86°
2026-05-04 06:48 25.77721 -80.52338 3666 ft 210 kts 87°
2026-05-04 06:48 25.77791 -80.50715 3404 ft 210 kts 87°
2026-05-04 06:49 25.77861 -80.49095 3144 ft 209 kts 87°
2026-05-04 06:50 25.78275 -80.39407 1502 ft 147 kts 88°
2026-05-04 06:51 25.78323 -80.38286 1312 ft 145 kts 88°
2026-05-04 06:51 25.78370 -80.37169 1118 ft 144 kts 87°
2026-05-04 06:51 25.78416 -80.36067 938 ft 143 kts 88°
2026-05-04 06:51 25.78462 -80.34973 751 ft 141 kts 87°
2026-05-04 06:52 25.78508 -80.33892 563 ft 139 kts 87°
2026-05-04 06:52 25.78553 -80.32821 376 ft 138 kts 87°
2026-05-04 06:52 25.78597 -80.31761 203 ft 138 kts 87°
2026-05-04 06:52 25.78642 -80.30701 28 ft 136 kts 87°
2026-05-04 06:53 25.78684 -80.29853 20 ft 71 kts 89°
2026-05-04 06:53 25.78687 -80.29629 21 ft 3 kts 88°
2026-05-04 06:53 25.78692 -80.29509 19 ft 22 kts 86°
2026-05-04 06:53 25.78707 -80.29336 22 ft 21 kts 81°
2026-05-04 06:54 25.78726 -80.29250 25 ft 16 kts 70°
2026-05-04 06:54 25.78787 -80.29163 20 ft 0 kts 43°
2026-05-04 06:57 25.78794 -80.29156 44 ft 4 kts 43°
2026-05-04 06:58 25.78822 -80.29142 19 ft 6 kts 340°
2026-05-04 06:58 25.78876 -80.29153 18 ft 10 kts 16°
2026-05-04 06:58 25.78905 -80.29081 19 ft 12 kts 86°
2026-05-04 06:58 25.78916 -80.28984 19 ft 14 kts 77°
2026-05-04 06:59 25.78966 -80.28881 18 ft 17 kts 26°
2026-05-04 06:59 25.79035 -80.28876 17 ft 0 kts 355°
2026-05-04 06:59 25.79042 -80.28881 17 ft 3 kts 327°
2026-05-04 06:59 25.79047 -80.28956 16 ft 19 kts 265°
2026-05-04 07:01 25.78968 -80.28711 18 ft 16 kts 41°
2026-05-04 07:01 25.79086 -80.28690 19 ft 18 kts 354°
2026-05-04 07:02 25.79185 -80.28779 19 ft 21 kts 302°
2026-05-04 07:02 25.79290 -80.28872 18 ft 4 kts 339°
2026-05-04 07:02 25.79323 -80.28879 18 ft 6 kts 352°
2026-05-04 07:02 25.79370 -80.28884 19 ft 8 kts 355°
2026-05-04 07:03 25.79430 -80.28890 20 ft 10 kts 355°
2026-05-04 07:03 25.79506 -80.28894 20 ft 12 kts 360°
2026-05-04 07:03 25.79597 -80.28895 23 ft 14 kts
2026-05-04 07:03 25.79642 -80.28828 23 ft 12 kts 90°
2026-05-04 07:04 25.79642 -80.28724 23 ft 15 kts 90°
2026-05-04 07:04 25.79654 -80.28594 22 ft 19 kts 83°
2026-05-04 07:04 25.79669 -80.28450 21 ft 15 kts 86°
2026-05-04 07:04 25.79673 -80.28324 20 ft 18 kts 88°
2026-05-04 07:05 25.79674 -80.28307 20 ft 0 kts 88°
2026-05-04 07:05 25.79675 -80.28305 20 ft 1 kts 66°
2026-05-04 07:05 25.79689 -80.28293 20 ft 4 kts 22°
2026-05-04 07:05 25.79707 -80.28298 19 ft 1 kts 342°
2026-05-04 07:06 25.79723 -80.28303 19 ft 1 kts 343°
2026-05-04 07:06 25.79731 -80.28306 20 ft 3 kts 341°
2026-05-04 07:06 25.79739 -80.28309 19 ft 0 kts 341°